MMS 2

Last updated on Mon Sep 21 2026 00:02:52 GMT+0000 (Coordinated Universal Time)

1 40483U 15011B 26263.66668981 -.00001947 00000+0 00000+0 0 9996 2 40483 72.9044 347.7244 8260254 169.3956 318.8016 0.28195061 1396
UTC large
Height (km)
Speed (km/s)
/
Latitude / Longitude
Inclination (degrees)
Orbital Period (minutes)
Azimuth
Elevation
Range (km)
Doppler Factor

Next 0 passes for location: London (51.5072 / 0.1276)

No passes found over London.
MMS 2